Saint Bonnet de Bellac- Haute Vienne - France
Donnes mto: lundi / mardi, 04/10/2011
Date Horaire Temp. E. Hum. E. P.atmo. Pluie Vent Direction Direction Ensoleilleme Solaire P. de rose Temp au vent Rafales
03/10/2011 23:00 15,8 C 63 % 1025,0 hPa 0,0 mm 0,0 km/h (0 Bft) E-SE 112 0 min 0 W/m 8,8 C 15,8 C 0,0 km/h (0 Bft)
03/10/2011 23:05 15,7 C 64 % 1025,0 hPa 0,0 mm 0,0 km/h (0 Bft) E-SE 112 0 min 0 W/m 8,9 C 15,7 C 0,0 km/h (0 Bft)
03/10/2011 23:10 15,7 C 64 % 1025,0 hPa 0,0 mm 0,0 km/h (0 Bft) SE 135 0 min 0 W/m 8,9 C 15,7 C 0,0 km/h (0 Bft)
03/10/2011 23:15 15,8 C 65 % 1025,0 hPa 0,0 mm 0,0 km/h (0 Bft) SE 135 0 min 0 W/m 9,2 C 15,8 C 0,0 km/h (0 Bft)
03/10/2011 23:20 15,6 C 65 % 1025,0 hPa 0,0 mm 0,0 km/h (0 Bft) SE 135 0 min 0 W/m 9,0 C 15,6 C 0,0 km/h (0 Bft)
03/10/2011 23:25 15,5 C 65 % 1025,0 hPa 0,0 mm 0,0 km/h (0 Bft) SE 135 0 min 0 W/m 8,9 C 15,5 C 0,0 km/h (0 Bft)
03/10/2011 23:30 15,4 C 65 % 1025,0 hPa 0,0 mm 0,0 km/h (0 Bft) E-SE 112 0 min 0 W/m 8,9 C 15,4 C 0,0 km/h (0 Bft)
03/10/2011 23:35 15,3 C 65 % 1025,0 hPa 0,0 mm 0,0 km/h (0 Bft) E-SE 112 0 min 0 W/m 8,8 C 15,3 C 0,0 km/h (0 Bft)
03/10/2011 23:40 15,2 C 66 % 1025,0 hPa 0,0 mm 0,0 km/h (0 Bft) E-SE 112 0 min 0 W/m 8,9 C 15,2 C 0,0 km/h (0 Bft)
03/10/2011 23:45 15,1 C 66 % 1025,0 hPa 0,0 mm 0,0 km/h (0 Bft) E-SE 112 0 min 0 W/m 8,8 C 15,1 C 0,0 km/h (0 Bft)
03/10/2011 23:50 15,1 C 66 % 1025,0 hPa 0,0 mm 0,0 km/h (0 Bft) E-SE 112 0 min 0 W/m 8,8 C 15,1 C 0,0 km/h (0 Bft)
03/10/2011 23:55 14,9 C 66 % 1025,0 hPa 0,0 mm 0,0 km/h (0 Bft) E-SE 112 0 min 0 W/m 8,6 C 14,9 C 0,0 km/h (0 Bft)
04/10/2011 00:00 14,7 C 66 % 1025,0 hPa 0,0 mm 0,0 km/h (0 Bft) E-SE 112 0 min 0 W/m 8,4 C 14,7 C 0,0 km/h (0 Bft)
04/10/2011 00:05 14,5 C 67 % 1025,1 hPa 0,0 mm 0,0 km/h (0 Bft) E-SE 112 0 min 0 W/m 8,4 C 14,5 C 0,0 km/h (0 Bft)
04/10/2011 00:10 14,3 C 67 % 1025,1 hPa 0,0 mm 0,0 km/h (0 Bft) E-SE 112 0 min 0 W/m 8,3 C 14,3 C 0,0 km/h (0 Bft)
04/10/2011 00:15 14,1 C 68 % 1025,0 hPa 0,0 mm 0,0 km/h (0 Bft) E-SE 112 0 min 0 W/m 8,3 C 14,1 C 0,0 km/h (0 Bft)
04/10/2011 00:20 13,9 C 68 % 1025,0 hPa 0,0 mm 0,0 km/h (0 Bft) E-SE 112 0 min 0 W/m 8,1 C 13,9 C 0,0 km/h (0 Bft)
04/10/2011 00:25 13,8 C 68 % 1024,9 hPa 0,0 mm 0,0 km/h (0 Bft) E-SE 112 0 min 0 W/m 8,0 C 13,8 C 0,0 km/h (0 Bft)
04/10/2011 00:30 13,6 C 68 % 1024,9 hPa 0,0 mm 0,0 km/h (0 Bft) N 360 0 min 0 W/m 7,8 C 13,6 C 0,0 km/h (0 Bft)
04/10/2011 00:35 13,5 C 69 % 1024,9 hPa 0,0 mm 0,0 km/h (0 Bft) E-SE 112 0 min 0 W/m 7,9 C 13,5 C 0,0 km/h (0 Bft)
04/10/2011 00:40 13,4 C 69 % 1024,9 hPa 0,0 mm 0,0 km/h (0 Bft) E-SE 112 0 min 0 W/m 7,8 C 13,4 C 0,0 km/h (0 Bft)
04/10/2011 00:45 13,3 C 69 % 1025,0 hPa 0,0 mm 0,0 km/h (0 Bft) E-SE 112 0 min 0 W/m 7,7 C 13,3 C 0,0 km/h (0 Bft)
04/10/2011 00:50 13,2 C 70 % 1025,0 hPa 0,0 mm 0,0 km/h (0 Bft) E-SE 112 0 min 0 W/m 7,9 C 13,2 C 0,0 km/h (0 Bft)
04/10/2011 00:55 13,1 C 71 % 1025,0 hPa 0,0 mm 0,0 km/h (0 Bft) E-SE 112 0 min 0 W/m 8,0 C 13,1 C 0,0 km/h (0 Bft)
04/10/2011 01:00 12,9 C 71 % 1025,0 hPa 0,0 mm 0,0 km/h (0 Bft) E-SE 112 0 min 0 W/m 7,8 C 12,9 C 0,0 km/h (0 Bft)
04/10/2011 01:05 12,8 C 71 % 1025,0 hPa 0,0 mm 0,0 km/h (0 Bft) E-SE 112 0 min 0 W/m 7,7 C 12,8 C 0,0 km/h (0 Bft)
04/10/2011 01:10 12,6 C 72 % 1025,1 hPa 0,0 mm 0,0 km/h (0 Bft) E-SE 112 0 min 0 W/m 7,7 C 12,6 C 0,0 km/h (0 Bft)
04/10/2011 01:15 12,5 C 72 % 1025,0 hPa 0,0 mm 0,0 km/h (0 Bft) E-SE 112 0 min 0 W/m 7,6 C 12,5 C 0,0 km/h (0 Bft)
04/10/2011 01:20 12,3 C 73 % 1024,9 hPa 0,0 mm 0,0 km/h (0 Bft) E-SE 112 0 min 0 W/m 7,6 C 12,3 C 0,0 km/h (0 Bft)
04/10/2011 01:25 12,3 C 73 % 1024,8 hPa 0,0 mm 1,1 km/h (1 Bft) SE 135 0 min 0 W/m 7,6 C 12,3 C 4,0 km/h (1 Bft)
04/10/2011 01:30 12,3 C 73 % 1024,8 hPa 0,0 mm 0,0 km/h (0 Bft) E-SE 112 0 min 0 W/m 7,6 C 12,3 C 0,0 km/h (0 Bft)
04/10/2011 01:35 12,3 C 73 % 1024,8 hPa 0,0 mm 0,0 km/h (0 Bft) E-SE 112 0 min 0 W/m 7,6 C 12,3 C 0,0 km/h (0 Bft)
04/10/2011 01:40 12,2 C 73 % 1024,9 hPa 0,0 mm 0,0 km/h (0 Bft) E-SE 112 0 min 0 W/m 7,5 C 12,2 C 0,0 km/h (0 Bft)
04/10/2011 01:45 12,1 C 74 % 1024,9 hPa 0,0 mm 0,0 km/h (0 Bft) E 90 0 min 0 W/m 7,6 C 12,1 C 0,0 km/h (0 Bft)
04/10/2011 01:50 12,1 C 74 % 1024,8 hPa 0,0 mm 0,0 km/h (0 Bft) E-SE 112 0 min 0 W/m 7,6 C 12,1 C 0,0 km/h (0 Bft)
04/10/2011 01:55 12,0 C 74 % 1024,8 hPa 0,0 mm 0,0 km/h (0 Bft) E-SE 112 0 min 0 W/m 7,5 C 12,0 C 0,0 km/h (0 Bft)
04/10/2011 02:00 11,9 C 74 % 1024,9 hPa 0,0 mm 0,0 km/h (0 Bft) E-SE 112 0 min 0 W/m 7,4 C 11,9 C 0,0 km/h (0 Bft)
04/10/2011 02:05 11,8 C 75 % 1024,9 hPa 0,0 mm 0,7 km/h (0 Bft) E-NE 67 0 min 0 W/m 7,5 C 11,8 C 4,0 km/h (1 Bft)
04/10/2011 02:10 11,8 C 75 % 1024,8 hPa 0,0 mm 2,5 km/h (1 Bft) E 90 0 min 0 W/m 7,5 C 11,8 C 4,0 km/h (1 Bft)
04/10/2011 02:15 11,7 C 76 % 1024,9 hPa 0,0 mm 0,0 km/h (0 Bft) E 90 0 min 0 W/m 7,6 C 11,7 C 0,0 km/h (0 Bft)
04/10/2011 02:20 11,6 C 76 % 1024,9 hPa 0,0 mm 0,0 km/h (0 Bft) E 90 0 min 0 W/m 7,5 C 11,6 C 0,0 km/h (0 Bft)
04/10/2011 02:25 11,5 C 76 % 1025,0 hPa 0,0 mm 0,0 km/h (0 Bft) E 90 0 min 0 W/m 7,4 C 11,5 C 0,0 km/h (0 Bft)
04/10/2011 02:30 11,4 C 76 % 1025,0 hPa 0,0 mm 1,4 km/h (1 Bft) E-SE 112 0 min 0 W/m 7,3 C 11,4 C 4,0 km/h (1 Bft)
04/10/2011 02:35 11,4 C 77 % 1024,9 hPa 0,0 mm 0,4 km/h (0 Bft) E 90 0 min 0 W/m 7,5 C 11,4 C 3,2 km/h (1 Bft)
04/10/2011 02:40 11,4 C 77 % 1025,0 hPa 0,0 mm 0,0 km/h (0 Bft) E 90 0 min 0 W/m 7,5 C 11,4 C 0,0 km/h (0 Bft)
04/10/2011 02:45 11,4 C 77 % 1025,1 hPa 0,0 mm 0,0 km/h (0 Bft) E-NE 67 0 min 0 W/m 7,5 C 11,4 C 0,0 km/h (0 Bft)
04/10/2011 02:50 11,3 C 77 % 1025,0 hPa 0,0 mm 1,1 km/h (1 Bft) E 90 0 min 0 W/m 7,4 C 11,3 C 3,2 km/h (1 Bft)
04/10/2011 02:55 11,2 C 78 % 1025,1 hPa 0,0 mm 2,9 km/h (1 Bft) E 90 0 min 0 W/m 7,5 C 11,2 C 4,3 km/h (1 Bft)
04/10/2011 03:02 11,1 C 78 % 1025,1 hPa 0,0 mm 0,4 km/h (0 Bft) E-SE 112 0 min 0 W/m 7,4 C 11,1 C 0,4 km/h (0 Bft)
04/10/2011 03:05 11,1 C 78 % 1025,0 hPa 0,0 mm 0,0 km/h (0 Bft) E 90 0 min 0 W/m 7,4 C 11,1 C 0,0 km/h (0 Bft)
04/10/2011 03:10 11,1 C 78 % 1024,9 hPa 0,0 mm 0,0 km/h (0 Bft) E-NE 67 0 min 0 W/m 7,4 C 11,1 C 0,0 km/h (0 Bft)
04/10/2011 03:15 10,9 C 78 % 1024,9 hPa 0,0 mm 0,0 km/h (0 Bft) E-NE 67 0 min 0 W/m 7,2 C 10,9 C 0,0 km/h (0 Bft)
04/10/2011 03:20 10,9 C 78 % 1024,9 hPa 0,0 mm 0,0 km/h (0 Bft) E 90 0 min 0 W/m 7,2 C 10,9 C 0,0 km/h (0 Bft)
04/10/2011 03:25 10,8 C 78 % 1024,9 hPa 0,0 mm 0,0 km/h (0 Bft) E-SE 112 0 min 0 W/m 7,1 C 10,8 C 0,0 km/h (0 Bft)
04/10/2011 03:30 10,8 C 78 % 1024,9 hPa 0,0 mm 0,0 km/h (0 Bft) E-NE 67 0 min 0 W/m 7,1 C 10,8 C 0,0 km/h (0 Bft)
04/10/2011 03:35 10,8 C 78 % 1024,8 hPa 0,0 mm 0,0 km/h (0 Bft) E 90 0 min 0 W/m 7,1 C 10,8 C 0,0 km/h (0 Bft)
04/10/2011 03:40 10,7 C 78 % 1024,8 hPa 0,0 mm 0,0 km/h (0 Bft) E 90 0 min 0 W/m 7,0 C 10,7 C 0,0 km/h (0 Bft)
04/10/2011 03:45 10,6 C 79 % 1024,8 hPa 0,0 mm 0,0 km/h (0 Bft) E 90 0 min 0 W/m 7,1 C 10,6 C 0,0 km/h (0 Bft)
04/10/2011 03:50 10,5 C 79 % 1024,9 hPa 0,0 mm 0,0 km/h (0 Bft) E-NE 67 0 min 0 W/m 7,0 C 10,5 C 0,0 km/h (0 Bft)
04/10/2011 03:55 10,4 C 79 % 1024,8 hPa 0,0 mm 0,0 km/h (0 Bft) E-NE 67 0 min 0 W/m 6,9 C 10,4 C 0,0 km/h (0 Bft)
04/10/2011 04:00 10,4 C 79 % 1024,8 hPa 0,0 mm 0,0 km/h (0 Bft) E-NE 67 0 min 0 W/m 6,9 C 10,4 C 0,0 km/h (0 Bft)
04/10/2011 04:05 10,3 C 79 % 1024,9 hPa 0,0 mm 0,0 km/h (0 Bft) E-SE 112 0 min 0 W/m 6,8 C 10,3 C 0,0 km/h (0 Bft)
04/10/2011 04:10 10,2 C 80 % 1024,9 hPa 0,0 mm 0,0 km/h (0 Bft) E-SE 112 0 min 0 W/m 6,9 C 10,2 C 0,0 km/h (0 Bft)
04/10/2011 04:15 10,1 C 80 % 1025,1 hPa 0,0 mm 0,0 km/h (0 Bft) E-SE 112 0 min 0 W/m 6,8 C 10,1 C 0,0 km/h (0 Bft)
04/10/2011 04:20 10,0 C 80 % 1025,1 hPa 0,0 mm 0,0 km/h (0 Bft) E-SE 112 0 min 0 W/m 6,7 C 10,0 C 0,0 km/h (0 Bft)
04/10/2011 04:25 9,9 C 80 % 1025,1 hPa 0,0 mm 0,0 km/h (0 Bft) E-SE 112 0 min 0 W/m 6,6 C 9,9 C 0,0 km/h (0 Bft)
04/10/2011 04:30 9,8 C 80 % 1025,1 hPa 0,0 mm 0,0 km/h (0 Bft) E-SE 112 0 min 0 W/m 6,5 C 9,8 C 0,0 km/h (0 Bft)
04/10/2011 04:35 9,7 C 80 % 1025,2 hPa 0,0 mm 0,0 km/h (0 Bft) E-SE 112 0 min 0 W/m 6,4 C 9,7 C 0,0 km/h (0 Bft)
04/10/2011 04:40 9,7 C 81 % 1025,2 hPa 0,0 mm 0,0 km/h (0 Bft) E-SE 112 0 min 0 W/m 6,6 C 9,7 C 0,0 km/h (0 Bft)
04/10/2011 04:45 9,6 C 81 % 1025,2 hPa 0,0 mm 0,0 km/h (0 Bft) E-SE 112 0 min 0 W/m 6,5 C 9,6 C 0,0 km/h (0 Bft)
04/10/2011 04:50 9,6 C 81 % 1025,3 hPa 0,0 mm 0,0 km/h (0 Bft) E-SE 112 0 min 0 W/m 6,5 C 9,6 C 0,0 km/h (0 Bft)
04/10/2011 04:55 9,6 C 82 % 1025,3 hPa 0,0 mm 0,0 km/h (0 Bft) E-SE 112 0 min 0 W/m 6,7 C 9,6 C 0,0 km/h (0 Bft)
04/10/2011 05:00 9,6 C 82 % 1025,3 hPa 0,0 mm 0,0 km/h (0 Bft) E-SE 112 0 min 0 W/m 6,7 C 9,6 C 0,0 km/h (0 Bft)
04/10/2011 05:05 9,6 C 82 % 1025,2 hPa 0,0 mm 0,0 km/h (0 Bft) E-SE 112 0 min 0 W/m 6,7 C 9,6 C 0,0 km/h (0 Bft)
04/10/2011 05:10 9,6 C 82 % 1025,2 hPa 0,0 mm 0,0 km/h (0 Bft) E-SE 112 0 min 0 W/m 6,7 C 9,6 C 0,0 km/h (0 Bft)
04/10/2011 05:15 9,5 C 82 % 1025,2 hPa 0,0 mm 0,0 km/h (0 Bft) E-SE 112 0 min 0 W/m 6,6 C 9,5 C 0,0 km/h (0 Bft)
04/10/2011 05:20 9,5 C 82 % 1025,2 hPa 0,0 mm 0,0 km/h (0 Bft) S-SE 157 0 min 0 W/m 6,6 C 9,5 C 0,0 km/h (0 Bft)
04/10/2011 05:25 9,6 C 83 % 1025,2 hPa 0,0 mm 0,0 km/h (0 Bft) S-SE 157 0 min 0 W/m 6,9 C 9,6 C 0,0 km/h (0 Bft)
04/10/2011 05:30 9,8 C 84 % 1025,2 hPa 0,0 mm 0,0 km/h (0 Bft) S-SE 157 0 min 0 W/m 7,2 C 9,8 C 0,0 km/h (0 Bft)
04/10/2011 05:35 9,9 C 84 % 1025,3 hPa 0,0 mm 0,0 km/h (0 Bft) S-SE 157 0 min 0 W/m 7,3 C 9,9 C 0,0 km/h (0 Bft)
04/10/2011 05:40 10,1 C 84 % 1025,3 hPa 0,0 mm 0,0 km/h (0 Bft) S-SO 202 0 min 0 W/m 7,5 C 10,1 C 0,0 km/h (0 Bft)
04/10/2011 05:45 10,2 C 84 % 1025,4 hPa 0,0 mm 0,0 km/h (0 Bft) S-SO 202 0 min 0 W/m 7,6 C 10,2 C 0,0 km/h (0 Bft)
04/10/2011 05:50 10,3 C 85 % 1025,3 hPa 0,0 mm 0,0 km/h (0 Bft) S-SO 202 0 min 0 W/m 7,9 C 10,3 C 0,0 km/h (0 Bft)
04/10/2011 05:55 10,4 C 85 % 1025,4 hPa 0,0 mm 0,0 km/h (0 Bft) SO 225 0 min 0 W/m 8,0 C 10,4 C 0,0 km/h (0 Bft)
04/10/2011 06:00 10,5 C 85 % 1025,4 hPa 0,0 mm 0,0 km/h (0 Bft) SO 225 0 min 0 W/m 8,1 C 10,5 C 0,0 km/h (0 Bft)
04/10/2011 06:05 10,5 C 85 % 1025,5 hPa 0,0 mm 0,0 km/h (0 Bft) SO 225 0 min 0 W/m 8,1 C 10,5 C 0,0 km/h (0 Bft)
04/10/2011 06:10 10,5 C 84 % 1025,6 hPa 0,0 mm 0,0 km/h (0 Bft) SO 225 0 min 0 W/m 7,9 C 10,5 C 0,0 km/h (0 Bft)
04/10/2011 06:15 10,4 C 84 % 1025,6 hPa 0,0 mm 0,0 km/h (0 Bft) SO 225 0 min 0 W/m 7,8 C 10,4 C 0,0 km/h (0 Bft)
04/10/2011 06:20 10,4 C 85 % 1025,5 hPa 0,0 mm 0,0 km/h (0 Bft) S-SO 202 0 min 0 W/m 8,0 C 10,4 C 0,0 km/h (0 Bft)
04/10/2011 06:25 10,6 C 86 % 1025,5 hPa 0,0 mm 0,0 km/h (0 Bft) S 180 0 min 0 W/m 8,4 C 10,6 C 0,0 km/h (0 Bft)
04/10/2011 06:30 10,8 C 85 % 1025,6 hPa 0,0 mm 0,0 km/h (0 Bft) S 180 0 min 0 W/m 8,4 C 10,8 C 0,0 km/h (0 Bft)
04/10/2011 06:35 10,7 C 84 % 1025,6 hPa 0,0 mm 0,0 km/h (0 Bft) S 180 0 min 0 W/m 8,1 C 10,7 C 0,0 km/h (0 Bft)
04/10/2011 06:40 10,6 C 84 % 1025,7 hPa 0,0 mm 0,0 km/h (0 Bft) E-SE 112 0 min 0 W/m 8,0 C 10,6 C 0,0 km/h (0 Bft)
04/10/2011 06:45 10,6 C 84 % 1025,7 hPa 0,0 mm 0,0 km/h (0 Bft) N-NE 22 0 min 0 W/m 8,0 C 10,6 C 0,0 km/h (0 Bft)
04/10/2011 06:50 10,5 C 84 % 1025,8 hPa 0,0 mm 0,0 km/h (0 Bft) N-NE 22 0 min 0 W/m 7,9 C 10,5 C 0,0 km/h (0 Bft)
04/10/2011 06:55 10,4 C 84 % 1025,8 hPa 0,0 mm 0,0 km/h (0 Bft) N-NE 22 0 min 0 W/m 7,8 C 10,4 C 0,0 km/h (0 Bft)
04/10/2011 07:00 10,4 C 84 % 1025,8 hPa 0,0 mm 0,0 km/h (0 Bft) N-NE 22 0 min 0 W/m 7,8 C 10,4 C 0,0 km/h (0 Bft)
04/10/2011 07:05 10,3 C 84 % 1025,9 hPa 0,0 mm 0,0 km/h (0 Bft) N-NE 22 0 min 0 W/m 7,7 C 10,3 C 0,0 km/h (0 Bft)
04/10/2011 07:10 10,3 C 84 % 1026,1 hPa 0,0 mm 0,0 km/h (0 Bft) N-NE 22 0 min 0 W/m 7,7 C 10,3 C 0,0 km/h (0 Bft)
04/10/2011 07:15 10,2 C 84 % 1026,1 hPa 0,0 mm 0,0 km/h (0 Bft) O-NO 292 0 min 0 W/m 7,6 C 10,2 C 0,0 km/h (0 Bft)
04/10/2011 07:20 10,2 C 84 % 1026,1 hPa 0,0 mm 0,0 km/h (0 Bft) O-NO 292 0 min 0 W/m 7,6 C 10,2 C 0,0 km/h (0 Bft)
04/10/2011 07:25 10,2 C 84 % 1026,2 hPa 0,0 mm 0,0 km/h (0 Bft) O-NO 292 0 min 0 W/m 7,6 C 10,2 C 0,0 km/h (0 Bft)
04/10/2011 07:30 10,3 C 85 % 1026,1 hPa 0,0 mm 0,0 km/h (0 Bft) O-NO 292 0 min 0 W/m 7,9 C 10,3 C 0,0 km/h (0 Bft)
04/10/2011 07:35 10,4 C 85 % 1026,1 hPa 0,0 mm 0,0 km/h (0 Bft) O-NO 292 0 min 0 W/m 8,0 C 10,4 C 0,0 km/h (0 Bft)
04/10/2011 07:40 10,4 C 85 % 1026,0 hPa 0,0 mm 0,0 km/h (0 Bft) O-NO 292 0 min 0 W/m 8,0 C 10,4 C 0,0 km/h (0 Bft)
04/10/2011 07:45 10,4 C 85 % 1026,0 hPa 0,0 mm 0,0 km/h (0 Bft) O-NO 292 0 min 0 W/m 8,0 C 10,4 C 0,0 km/h (0 Bft)
04/10/2011 07:50 10,4 C 85 % 1026,1 hPa 0,0 mm 0,0 km/h (0 Bft) O-NO 292 0 min 0 W/m 8,0 C 10,4 C 0,0 km/h (0 Bft)
04/10/2011 07:55 10,4 C 86 % 1026,1 hPa 0,0 mm 0,0 km/h (0 Bft) O 270 0 min 0 W/m 8,2 C 10,4 C 0,0 km/h (0 Bft)
04/10/2011 08:00 10,6 C 86 % 1026,1 hPa 0,0 mm 0,0 km/h (0 Bft) S-SO 202 0 min 0 W/m 8,4 C 10,6 C 0,0 km/h (0 Bft)
04/10/2011 08:05 10,8 C 86 % 1026,1 hPa 0,0 mm 0,0 km/h (0 Bft) S-SO 202 0 min 0 W/m 8,6 C 10,8 C 0,0 km/h (0 Bft)
04/10/2011 08:10 10,9 C 87 % 1026,1 hPa 0,0 mm 0,0 km/h (0 Bft) S-SO 202 2 min 0 W/m 8,8 C 10,9 C 0,0 km/h (0 Bft)
04/10/2011 08:15 11,0 C 87 % 1026,3 hPa 0,0 mm 0,0 km/h (0 Bft) S-SO 202 2 min 0 W/m 8,9 C 11,0 C 0,0 km/h (0 Bft)
04/10/2011 08:20 11,1 C 87 % 1026,3 hPa 0,0 mm 0,0 km/h (0 Bft) S-SO 202 2 min 0 W/m 9,0 C 11,1 C 0,0 km/h (0 Bft)
04/10/2011 08:25 11,3 C 87 % 1026,3 hPa 0,0 mm 0,0 km/h (0 Bft) S-SO 202 2 min 0 W/m 9,2 C 11,3 C 0,0 km/h (0 Bft)
04/10/2011 08:30 11,4 C 87 % 1026,3 hPa 0,0 mm 0,0 km/h (0 Bft) S-SO 202 2 min 0 W/m 9,3 C 11,4 C 0,0 km/h (0 Bft)
04/10/2011 08:35 11,6 C 87 % 1026,3 hPa 0,0 mm 0,0 km/h (0 Bft) S-SO 202 2 min 0 W/m 9,5 C 11,6 C 0,0 km/h (0 Bft)
04/10/2011 08:40 11,8 C 88 % 1026,4 hPa 0,0 mm 0,0 km/h (0 Bft) S-SO 202 2 min 0 W/m 9,9 C 11,8 C 0,0 km/h (0 Bft)
04/10/2011 08:45 11,8 C 88 % 1026,4 hPa 0,0 mm 0,0 km/h (0 Bft) S 180 2 min 0 W/m 9,9 C 11,8 C 0,0 km/h (0 Bft)
04/10/2011 08:50 11,9 C 87 % 1026,5 hPa 0,0 mm 0,0 km/h (0 Bft) S-SE 157 2 min 0 W/m 9,8 C 11,9 C 3,6 km/h (1 Bft)
04/10/2011 08:55 12,1 C 87 % 1026,5 hPa 0,0 mm 0,0 km/h (0 Bft) S 180 2 min 0 W/m 10,0 C 12,1 C 0,0 km/h (0 Bft)
04/10/2011 09:00 12,1 C 88 % 1026,5 hPa 0,0 mm 0,0 km/h (0 Bft) S 180 2 min 0 W/m 10,2 C 12,1 C 0,0 km/h (0 Bft)
04/10/2011 09:05 12,2 C 87 % 1026,6 hPa 0,0 mm 0,0 km/h (0 Bft) SE 135 2 min 0 W/m 10,1 C 12,2 C 0,0 km/h (0 Bft)
04/10/2011 09:10 12,2 C 88 % 1026,6 hPa 0,0 mm 0,0 km/h (0 Bft) S-SE 157 2 min 0 W/m 10,3 C 12,2 C 0,0 km/h (0 Bft)
04/10/2011 09:15 12,3 C 88 % 1026,6 hPa 0,0 mm 0,0 km/h (0 Bft) S-SE 157 2 min 0 W/m 10,4 C 12,3 C 0,0 km/h (0 Bft)
04/10/2011 09:20 12,4 C 88 % 1026,6 hPa 0,0 mm 0,0 km/h (0 Bft) S 180 2 min 0 W/m 10,5 C 12,4 C 0,0 km/h (0 Bft)
04/10/2011 09:25 12,5 C 88 % 1026,7 hPa 0,0 mm 0,0 km/h (0 Bft) S 180 2 min 0 W/m 10,6 C 12,5 C 0,0 km/h (0 Bft)
04/10/2011 09:30 12,6 C 88 % 1026,6 hPa 0,0 mm 0,0 km/h (0 Bft) S 180 2 min 0 W/m 10,7 C 12,6 C 0,0 km/h (0 Bft)
04/10/2011 09:35 12,6 C 88 % 1026,7 hPa 0,0 mm 0,0 km/h (0 Bft) S 180 2 min 0 W/m 10,7 C 12,6 C 0,0 km/h (0 Bft)
04/10/2011 09:40 12,8 C 88 % 1026,6 hPa 0,0 mm 0,0 km/h (0 Bft) S 180 2 min 0 W/m 10,9 C 12,8 C 0,0 km/h (0 Bft)
04/10/2011 09:45 12,9 C 88 % 1026,6 hPa 0,0 mm 0,4 km/h (0 Bft) S 180 2 min 0 W/m 11,0 C 12,9 C 0,4 km/h (0 Bft)
04/10/2011 09:50 12,9 C 88 % 1026,6 hPa 0,0 mm 0,0 km/h (0 Bft) S 180 2 min 0 W/m 11,0 C 12,9 C 0,0 km/h (0 Bft)
04/10/2011 09:55 13,1 C 89 % 1026,6 hPa 0,0 mm 0,0 km/h (0 Bft) S-SO 202 2 min 0 W/m 11,3 C 13,1 C 0,0 km/h (0 Bft)
04/10/2011 10:00 13,2 C 89 % 1026,6 hPa 0,0 mm 0,0 km/h (0 Bft) S 180 2 min 0 W/m 11,4 C 13,2 C 0,0 km/h (0 Bft)
04/10/2011 10:05 13,4 C 89 % 1026,7 hPa 0,0 mm 0,0 km/h (0 Bft) S 180 2 min 0 W/m 11,6 C 13,4 C 0,0 km/h (0 Bft)
04/10/2011 10:10 13,5 C 89 % 1026,7 hPa 0,0 mm 0,0 km/h (0 Bft) S 180 2 min 0 W/m 11,7 C 13,5 C 0,0 km/h (0 Bft)
04/10/2011 10:15 13,7 C 89 % 1026,8 hPa 0,0 mm 0,0 km/h (0 Bft) S-SO 202 2 min 0 W/m 11,9 C 13,7 C 0,0 km/h (0 Bft)
04/10/2011 10:20 13,8 C 89 % 1026,8 hPa 0,0 mm 0,0 km/h (0 Bft) S-SO 202 2 min 0 W/m 12,0 C 13,8 C 0,0 km/h (0 Bft)
04/10/2011 10:25 13,9 C 89 % 1026,8 hPa 0,0 mm 0,0 km/h (0 Bft) S-SO 202 2 min 0 W/m 12,1 C 13,9 C 0,0 km/h (0 Bft)
04/10/2011 10:30 14,1 C 89 % 1026,8 hPa 0,0 mm 0,0 km/h (0 Bft) S-SO 202 2 min 0 W/m 12,3 C 14,1 C 0,0 km/h (0 Bft)
04/10/2011 10:35 14,2 C 89 % 1026,9 hPa 0,0 mm 0,0 km/h (0 Bft) S-SO 202 2 min 0 W/m 12,4 C 14,2 C 0,0 km/h (0 Bft)
04/10/2011 10:40 14,4 C 89 % 1026,9 hPa 0,0 mm 0,0 km/h (0 Bft) S 180 0 min 0 W/m 12,6 C 14,4 C 0,0 km/h (0 Bft)
04/10/2011 10:45 14,4 C 89 % 1026,9 hPa 0,0 mm 0,0 km/h (0 Bft) S-SO 202 2 min 0 W/m 12,6 C 14,4 C 0,0 km/h (0 Bft)
04/10/2011 10:50 14,6 C 89 % 1026,9 hPa 0,0 mm 0,0 km/h (0 Bft) S-SO 202 0 min 0 W/m 12,8 C 14,6 C 0,0 km/h (0 Bft)
04/10/2011 10:55 14,8 C 89 % 1026,9 hPa 0,0 mm 0,0 km/h (0 Bft) S-SO 202 0 min 0 W/m 13,0 C 14,8 C 0,0 km/h (0 Bft)
04/10/2011 11:00 14,9 C 89 % 1027,1 hPa 0,0 mm 0,0 km/h (0 Bft) SO 225 0 min 0 W/m 13,1 C 14,9 C 0,0 km/h (0 Bft)
04/10/2011 11:05 15,1 C 89 % 1027,2 hPa 0,0 mm 0,0 km/h (0 Bft) SO 225 0 min 0 W/m 13,3 C 15,1 C 0,0 km/h (0 Bft)
04/10/2011 11:10 15,2 C 89 % 1027,2 hPa 0,0 mm 0,0 km/h (0 Bft) SO 225 0 min 0 W/m 13,4 C 15,2 C 0,0 km/h (0 Bft)
04/10/2011 11:15 15,3 C 89 % 1027,2 hPa 0,0 mm 0,0 km/h (0 Bft) S-SE 157 0 min 0 W/m 13,5 C 15,3 C 0,0 km/h (0 Bft)
04/10/2011 11:20 15,4 C 89 % 1027,3 hPa 0,0 mm 0,0 km/h (0 Bft) E-NE 67 0 min 0 W/m 13,6 C 15,4 C 0,0 km/h (0 Bft)
04/10/2011 11:25 15,5 C 88 % 1027,3 hPa 0,0 mm 0,0 km/h (0 Bft) E-NE 67 0 min 0 W/m 13,5 C 15,5 C 0,0 km/h (0 Bft)
04/10/2011 11:30 15,6 C 88 % 1027,3 hPa 0,0 mm 0,0 km/h (0 Bft) E-NE 67 0 min 0 W/m 13,6 C 15,6 C 0,0 km/h (0 Bft)
04/10/2011 11:35 15,6 C 88 % 1027,3 hPa 0,0 mm 0,0 km/h (0 Bft) E-NE 67 0 min 0 W/m 13,6 C 15,6 C 0,0 km/h (0 Bft)
04/10/2011 11:40 15,8 C 88 % 1027,2 hPa 0,0 mm 0,0 km/h (0 Bft) E-NE 67 0 min 0 W/m 13,8 C 15,8 C 0,0 km/h (0 Bft)
04/10/2011 11:45 15,8 C 88 % 1027,2 hPa 0,0 mm 0,0 km/h (0 Bft) E-NE 67 0 min 0 W/m 13,8 C 15,8 C 0,0 km/h (0 Bft)
04/10/2011 11:50 15,9 C 87 % 1027,3 hPa 0,0 mm 0,0 km/h (0 Bft) E-NE 67 0 min 0 W/m 13,7 C 15,9 C 0,0 km/h (0 Bft)
04/10/2011 11:55 16,0 C 87 % 1027,2 hPa 0,0 mm 0,0 km/h (0 Bft) E 90 0 min 0 W/m 13,8 C 16,0 C 0,0 km/h (0 Bft)
04/10/2011 12:00 16,1 C 87 % 1027,2 hPa 0,0 mm 0,0 km/h (0 Bft) E 90 0 min 0 W/m 13,9 C 16,1 C 0,0 km/h (0 Bft)
04/10/2011 12:05 16,2 C 87 % 1027,2 hPa 0,0 mm 0,0 km/h (0 Bft) N-NO 337 0 min 0 W/m 14,0 C 16,2 C 0,0 km/h (0 Bft)
04/10/2011 12:10 16,3 C 87 % 1027,3 hPa 0,0 mm 0,0 km/h (0 Bft) N-NO 337 0 min 0 W/m 14,1 C 16,3 C 0,0 km/h (0 Bft)
04/10/2011 12:15 16,4 C 87 % 1027,3 hPa 0,0 mm 0,0 km/h (0 Bft) N-NO 337 0 min 0 W/m 14,2 C 16,4 C 0,0 km/h (0 Bft)
04/10/2011 12:20 16,5 C 87 % 1027,4 hPa 0,0 mm 1,1 km/h (1 Bft) O-NO 292 0 min 0 W/m 14,3 C 16,5 C 2,9 km/h (1 Bft)
04/10/2011 12:25 16,6 C 87 % 1027,4 hPa 0,0 mm 2,2 km/h (1 Bft) N-NO 337 0 min 0 W/m 14,4 C 16,6 C 3,2 km/h (1 Bft)
04/10/2011 12:30 16,6 C 86 % 1027,4 hPa 0,0 mm 0,0 km/h (0 Bft) N-NO 337 0 min 0 W/m 14,2 C 16,6 C 0,0 km/h (0 Bft)
04/10/2011 12:35 16,8 C 86 % 1027,4 hPa 0,0 mm 0,0 km/h (0 Bft) N-NO 337 0 min 0 W/m 14,4 C 16,8 C 0,0 km/h (0 Bft)
04/10/2011 12:40 16,9 C 86 % 1027,4 hPa 0,0 mm 0,0 km/h (0 Bft) N-NO 337 0 min 0 W/m 14,5 C 16,9 C 0,0 km/h (0 Bft)
04/10/2011 12:45 17,1 C 86 % 1027,4 hPa 0,0 mm 0,0 km/h (0 Bft) N-NO 337 0 min 0 W/m 14,7 C 17,1 C 0,0 km/h (0 Bft)
04/10/2011 12:50 17,3 C 86 % 1027,4 hPa 0,0 mm 0,0 km/h (0 Bft) N-NO 337 0 min 0 W/m 14,9 C 17,3 C 0,0 km/h (0 Bft)
04/10/2011 12:55 17,5 C 86 % 1027,4 hPa 0,0 mm 0,0 km/h (0 Bft) N-NO 337 0 min 0 W/m 15,1 C 17,5 C 0,0 km/h (0 Bft)
04/10/2011 13:00 17,6 C 85 % 1027,5 hPa 0,0 mm 0,0 km/h (0 Bft) NO 315 0 min 0 W/m 15,0 C 17,6 C 0,0 km/h (0 Bft)
04/10/2011 13:05 17,8 C 85 % 1027,4 hPa 0,0 mm 1,1 km/h (1 Bft) N 360 0 min 0 W/m 15,2 C 17,8 C 3,6 km/h (1 Bft)
04/10/2011 13:10 18,0 C 84 % 1027,3 hPa 0,0 mm 0,0 km/h (0 Bft) N 360 0 min 0 W/m 15,3 C 18,0 C 0,0 km/h (0 Bft)
04/10/2011 13:15 18,2 C 84 % 1027,3 hPa 0,0 mm 0,0 km/h (0 Bft) N 360 0 min 0 W/m 15,4 C 18,2 C 0,0 km/h (0 Bft)
04/10/2011 13:20 18,6 C 83 % 1027,3 hPa 0,0 mm 0,0 km/h (0 Bft) N-NE 22 0 min 0 W/m 15,7 C 18,6 C 0,0 km/h (0 Bft)
04/10/2011 13:25 18,9 C 82 % 1027,4 hPa 0,0 mm 2,9 km/h (1 Bft) N 360 0 min 0 W/m 15,8 C 18,9 C 7,2 km/h (2 Bft)
04/10/2011 13:30 19,1 C 81 % 1027,4 hPa 0,0 mm 2,9 km/h (1 Bft) N-NE 22 0 min 0 W/m 15,8 C 19,1 C 4,3 km/h (1 Bft)
04/10/2011 13:35 19,3 C 80 % 1027,4 hPa 0,0 mm 0,4 km/h (0 Bft) N-NE 22 0 min 0 W/m 15,8 C 19,3 C 3,2 km/h (1 Bft)
04/10/2011 13:40 19,4 C 80 % 1027,4 hPa 0,0 mm 0,0 km/h (0 Bft) N 360 0 min 0 W/m 15,9 C 19,4 C 0,0 km/h (0 Bft)
04/10/2011 13:45 19,4 C 79 % 1027,4 hPa 0,0 mm 0,0 km/h (0 Bft) N-NE 22 0 min 0 W/m 15,7 C 19,4 C 0,0 km/h (0 Bft)
04/10/2011 13:50 19,4 C 78 % 1027,3 hPa 0,0 mm 1,4 km/h (1 Bft) N-NE 22 0 min 0 W/m 15,5 C 19,4 C 4,0 km/h (1 Bft)
04/10/2011 13:55 19,5 C 78 % 1027,4 hPa 0,0 mm 0,0 km/h (0 Bft) N-NE 22 0 min 0 W/m 15,6 C 19,5 C 0,0 km/h (0 Bft)
04/10/2011 14:00 19,5 C 78 % 1027,3 hPa 0,0 mm 0,0 km/h (0 Bft) NE 45 0 min 0 W/m 15,6 C 19,5 C 0,0 km/h (0 Bft)
04/10/2011 14:05 19,6 C 77 % 1027,3 hPa 0,0 mm 2,5 km/h (1 Bft) N-NE 22 0 min 0 W/m 15,5 C 19,6 C 4,0 km/h (1 Bft)
04/10/2011 14:10 19,8 C 77 % 1027,1 hPa 0,0 mm 0,0 km/h (0 Bft) N 360 0 min 0 W/m 15,6 C 19,8 C 0,0 km/h (0 Bft)
04/10/2011 14:15 20,0 C 77 % 1027,2 hPa 0,0 mm 0,0 km/h (0 Bft) E-NE 67 0 min 0 W/m 15,8 C 20,0 C 0,0 km/h (0 Bft)
04/10/2011 14:20 20,3 C 77 % 1027,1 hPa 0,0 mm 0,0 km/h (0 Bft) E-NE 67 0 min 0 W/m 16,1 C 20,3 C 0,0 km/h (0 Bft)
04/10/2011 14:25 20,5 C 76 % 1027,0 hPa 0,0 mm 2,5 km/h (1 Bft) N-NE 22 0 min 0 W/m 16,1 C 20,5 C 4,3 km/h (1 Bft)
04/10/2011 14:30 20,8 C 75 % 1027,0 hPa 0,0 mm 0,4 km/h (0 Bft) NE 45 0 min 0 W/m 16,2 C 20,8 C 3,2 km/h (1 Bft)
04/10/2011 14:35 20,9 C 75 % 1027,0 hPa 0,0 mm 1,8 km/h (1 Bft) N-NE 22 0 min 0 W/m 16,3 C 20,9 C 6,1 km/h (2 Bft)
04/10/2011 14:40 21,0 C 74 % 1027,0 hPa 0,0 mm 0,0 km/h (0 Bft) E-NE 67 0 min 0 W/m 16,2 C 21,0 C 0,0 km/h (0 Bft)
04/10/2011 14:45 21,1 C 74 % 1026,8 hPa 0,0 mm 1,1 km/h (1 Bft) E-NE 67 0 min 0 W/m 16,3 C 21,1 C 1,1 km/h (1 Bft)
04/10/2011 14:50 21,2 C 73 % 1026,9 hPa 0,0 mm 2,5 km/h (1 Bft) E-NE 67 0 min 0 W/m 16,2 C 21,2 C 3,6 km/h (1 Bft)
04/10/2011 14:55 21,3 C 71 % 1026,9 hPa 0,0 mm 0,0 km/h (0 Bft) S-SE 157 0 min 0 W/m 15,8 C 21,3 C 0,0 km/h (0 Bft)
04/10/2011 15:00 21,3 C 72 % 1026,8 hPa 0,0 mm 0,0 km/h (0 Bft) S-SE 157 0 min 0 W/m 16,0 C 21,3 C 2,9 km/h (1 Bft)
04/10/2011 15:05 21,4 C 72 % 1026,8 hPa 0,0 mm 0,7 km/h (0 Bft) N-NE 22 0 min 0 W/m 16,1 C 21,4 C 4,0 km/h (1 Bft)
04/10/2011 15:10 21,5 C 71 % 1026,7 hPa 0,0 mm 0,0 km/h (0 Bft) N-NE 22 0 min 0 W/m 16,0 C 21,5 C 0,0 km/h (0 Bft)
04/10/2011 15:15 21,6 C 71 % 1026,7 hPa 0,0 mm 0,0 km/h (0 Bft) N-NE 22 0 min 0 W/m 16,1 C 21,6 C 0,0 km/h (0 Bft)
04/10/2011 15:20 21,6 C 71 % 1026,7 hPa 0,0 mm 0,0 km/h (0 Bft) E-SE 112 0 min 0 W/m 16,1 C 21,6 C 0,0 km/h (0 Bft)
04/10/2011 15:25 21,5 C 71 % 1026,7 hPa 0,0 mm 0,4 km/h (0 Bft) S 180 0 min 0 W/m 16,0 C 21,5 C 0,4 km/h (0 Bft)
04/10/2011 15:30 21,6 C 71 % 1026,7 hPa 0,0 mm 0,7 km/h (0 Bft) SE 135 0 min 0 W/m 16,1 C 21,6 C 6,1 km/h (2 Bft)
04/10/2011 15:35 21,5 C 71 % 1026,6 hPa 0,0 mm 2,9 km/h (1 Bft) S-SE 157 0 min 0 W/m 16,0 C 21,5 C 4,3 km/h (1 Bft)
04/10/2011 15:40 21,4 C 71 % 1026,6 hPa 0,0 mm 0,0 km/h (0 Bft) S-SE 157 0 min 0 W/m 15,9 C 21,4 C 0,0 km/h (0 Bft)
04/10/2011 15:45 21,4 C 71 % 1026,5 hPa 0,0 mm 0,0 km/h (0 Bft) O 270 0 min 0 W/m 15,9 C 21,4 C 0,0 km/h (0 Bft)
04/10/2011 15:50 21,4 C 71 % 1026,5 hPa 0,0 mm 0,0 km/h (0 Bft) O 270 0 min 0 W/m 15,9 C 21,4 C 0,0 km/h (0 Bft)
04/10/2011 15:55 21,4 C 71 % 1026,5 hPa 0,0 mm 0,0 km/h (0 Bft) O 270 0 min 0 W/m 15,9 C 21,4 C 0,0 km/h (0 Bft)
04/10/2011 16:00 21,3 C 71 % 1026,4 hPa 0,0 mm 0,0 km/h (0 Bft) O 270 0 min 0 W/m 15,8 C 21,3 C 0,0 km/h (0 Bft)
04/10/2011 16:05 21,5 C 71 % 1026,3 hPa 0,0 mm 0,0 km/h (0 Bft) O 270 0 min 0 W/m 16,0 C 21,5 C 0,0 km/h (0 Bft)
04/10/2011 16:10 21,6 C 71 % 1026,2 hPa 0,0 mm 0,4 km/h (0 Bft) O-SO 247 0 min 0 W/m 16,1 C 21,6 C 0,4 km/h (0 Bft)
04/10/2011 16:15 21,8 C 70 % 1026,3 hPa 0,0 mm 0,4 km/h (0 Bft) O-SO 247 0 min 0 W/m 16,1 C 21,8 C 3,2 km/h (1 Bft)
04/10/2011 16:20 21,8 C 70 % 1026,2 hPa 0,0 mm 0,0 km/h (0 Bft) O-NO 292 0 min 0 W/m 16,1 C 21,8 C 3,2 km/h (1 Bft)
04/10/2011 16:25 21,9 C 70 % 1026,0 hPa 0,0 mm 1,4 km/h (1 Bft) N-NO 337 0 min 0 W/m 16,2 C 21,9 C 1,4 km/h (1 Bft)
04/10/2011 16:30 22,1 C 69 % 1026,0 hPa 0,0 mm 0,0 km/h (0 Bft) N-NO 337 0 min 0 W/m 16,1 C 22,1 C 0,0 km/h (0 Bft)
04/10/2011 16:35 22,2 C 69 % 1026,0 hPa 0,0 mm 0,0 km/h (0 Bft) N-NO 337 0 min 0 W/m 16,2 C 22,2 C 0,0 km/h (0 Bft)
04/10/2011 16:40 22,3 C 69 % 1025,9 hPa 0,0 mm 0,0 km/h (0 Bft) N-NO 337 0 min 0 W/m 16,3 C 22,3 C 0,0 km/h (0 Bft)
04/10/2011 16:45 22,3 C 69 % 1025,9 hPa 0,0 mm 0,4 km/h (0 Bft) N 360 0 min 0 W/m 16,3 C 22,3 C 0,4 km/h (0 Bft)
04/10/2011 16:50 22,3 C 69 % 1025,9 hPa 0,0 mm 0,0 km/h (0 Bft) SO 225 0 min 0 W/m 16,3 C 22,3 C 3,6 km/h (1 Bft)
04/10/2011 16:55 22,2 C 68 % 1025,9 hPa 0,0 mm 1,1 km/h (1 Bft) O-SO 247 0 min 0 W/m 16,0 C 22,2 C 7,2 km/h (2 Bft)
04/10/2011 17:00 22,1 C 68 % 1025,9 hPa 0,0 mm 0,0 km/h (0 Bft) O-SO 247 0 min 0 W/m 15,9 C 22,1 C 0,0 km/h (0 Bft)
04/10/2011 17:05 21,9 C 68 % 1025,8 hPa 0,0 mm 1,1 km/h (1 Bft) N-NO 337 0 min 0 W/m 15,7 C 21,9 C 3,6 km/h (1 Bft)
04/10/2011 17:10 21,9 C 69 % 1025,8 hPa 0,0 mm 0,0 km/h (0 Bft) N-NO 337 0 min 0 W/m 15,9 C 21,9 C 0,0 km/h (0 Bft)
04/10/2011 17:15 21,8 C 69 % 1025,9 hPa 0,0 mm 1,4 km/h (1 Bft) N-NO 337 0 min 0 W/m 15,9 C 21,8 C 4,0 km/h (1 Bft)
04/10/2011 17:20 21,8 C 69 % 1025,7 hPa 0,0 mm 0,4 km/h (0 Bft) N-NO 337 0 min 0 W/m 15,9 C 21,8 C 3,2 km/h (1 Bft)
04/10/2011 17:25 21,8 C 69 % 1025,7 hPa 0,0 mm 0,0 km/h (0 Bft) N-NO 337 0 min 0 W/m 15,9 C 21,8 C 3,2 km/h (1 Bft)
04/10/2011 17:30 21,8 C 69 % 1025,7 hPa 0,0 mm 0,0 km/h (0 Bft) N-NO 337 0 min 0 W/m 15,9 C 21,8 C 0,0 km/h (0 Bft)
04/10/2011 17:35 21,8 C 69 % 1025,7 hPa 0,0 mm 0,0 km/h (0 Bft) O-SO 247 0 min 0 W/m 15,9 C 21,8 C 0,0 km/h (0 Bft)
04/10/2011 17:40 21,8 C 69 % 1025,7 hPa 0,0 mm 0,0 km/h (0 Bft) O 270 0 min 0 W/m 15,9 C 21,8 C 2,9 km/h (1 Bft)
04/10/2011 17:45 21,8 C 69 % 1025,7 hPa 0,0 mm 1,1 km/h (1 Bft) O-NO 292 0 min 0 W/m 15,9 C 21,8 C 4,0 km/h (1 Bft)
04/10/2011 17:50 21,8 C 69 % 1025,8 hPa 0,0 mm 0,0 km/h (0 Bft) O-NO 292 0 min 0 W/m 15,9 C 21,8 C 0,0 km/h (0 Bft)
04/10/2011 17:55 21,8 C 69 % 1025,7 hPa 0,0 mm 0,0 km/h (0 Bft) NO 315 0 min 0 W/m 15,9 C 21,8 C 3,2 km/h (1 Bft)
04/10/2011 18:00 21,7 C 68 % 1025,7 hPa 0,0 mm 0,7 km/h (0 Bft) N-NO 337 0 min 0 W/m 15,5 C 21,7 C 0,7 km/h (0 Bft)
04/10/2011 18:05 21,7 C 68 % 1025,7 hPa 0,0 mm 0,0 km/h (0 Bft) O-NO 292 0 min 0 W/m 15,5 C 21,7 C 0,0 km/h (0 Bft)
04/10/2011 18:10 21,6 C 68 % 1025,7 hPa 0,0 mm 0,0 km/h (0 Bft) NO 315 0 min 0 W/m 15,4 C 21,6 C 0,0 km/h (0 Bft)
04/10/2011 18:15 21,6 C 68 % 1025,7 hPa 0,0 mm 0,0 km/h (0 Bft) NO 315 0 min 0 W/m 15,4 C 21,6 C 0,0 km/h (0 Bft)
04/10/2011 18:20 21,6 C 67 % 1025,7 hPa 0,0 mm 0,7 km/h (0 Bft) N-NO 337 0 min 0 W/m 15,2 C 21,6 C 3,6 km/h (1 Bft)
04/10/2011 18:25 21,6 C 67 % 1025,8 hPa 0,0 mm 0,4 km/h (0 Bft) N-NO 337 0 min 0 W/m 15,2 C 21,6 C 0,4 km/h (0 Bft)
04/10/2011 18:30 21,5 C 67 % 1025,7 hPa 0,0 mm 0,0 km/h (0 Bft) N-NO 337 0 min 0 W/m 15,1 C 21,5 C 0,0 km/h (0 Bft)
04/10/2011 18:35 21,4 C 67 % 1025,7 hPa 0,0 mm 1,1 km/h (1 Bft) N-NO 337 0 min 0 W/m 15,0 C 21,4 C 1,1 km/h (1 Bft)
04/10/2011 18:40 21,4 C 67 % 1025,8 hPa 0,0 mm 0,0 km/h (0 Bft) N-NO 337 0 min 0 W/m 15,0 C 21,4 C 0,0 km/h (0 Bft)
04/10/2011 18:45 21,3 C 66 % 1025,8 hPa 0,0 mm 0,0 km/h (0 Bft) N-NO 337 0 min 0 W/m 14,7 C 21,3 C 0,0 km/h (0 Bft)
04/10/2011 18:50 21,3 C 66 % 1025,8 hPa 0,0 mm 0,0 km/h (0 Bft) N-NO 337 0 min 0 W/m 14,7 C 21,3 C 0,0 km/h (0 Bft)
04/10/2011 18:55 21,2 C 66 % 1025,9 hPa 0,0 mm 0,0 km/h (0 Bft) N-NO 337 0 min 0 W/m 14,6 C 21,2 C 0,0 km/h (0 Bft)
04/10/2011 19:00 21,1 C 66 % 1025,8 hPa 0,0 mm 0,0 km/h (0 Bft) N-NO 337 0 min 0 W/m 14,5 C 21,1 C 0,0 km/h (0 Bft)
04/10/2011 19:05 21,0 C 66 % 1025,8 hPa 0,0 mm 0,0 km/h (0 Bft) N-NO 337 0 min 0 W/m 14,4 C 21,0 C 0,0 km/h (0 Bft)
04/10/2011 19:10 20,9 C 66 % 1025,9 hPa 0,0 mm 0,0 km/h (0 Bft) N-NO 337 0 min 0 W/m 14,3 C 20,9 C 0,0 km/h (0 Bft)
04/10/2011 19:15 20,8 C 66 % 1025,9 hPa 0,0 mm 0,0 km/h (0 Bft) N-NO 337 0 min 0 W/m 14,2 C 20,8 C 0,0 km/h (0 Bft)
04/10/2011 19:20 20,5 C 67 % 1025,9 hPa 0,0 mm 0,0 km/h (0 Bft) N-NO 337 2 min 0 W/m 14,2 C 20,5 C 0,0 km/h (0 Bft)
04/10/2011 19:25 20,2 C 68 % 1025,9 hPa 0,0 mm 0,0 km/h (0 Bft) N-NO 337 0 min 0 W/m 14,1 C 20,2 C 0,0 km/h (0 Bft)
04/10/2011 19:30 19,8 C 69 % 1026,0 hPa 0,0 mm 0,0 km/h (0 Bft) N-NO 337 0 min 0 W/m 13,9 C 19,8 C 0,0 km/h (0 Bft)
04/10/2011 19:35 19,6 C 70 % 1026,0 hPa 0,0 mm 0,0 km/h (0 Bft) N-NO 337 0 min 0 W/m 14,0 C 19,6 C 0,0 km/h (0 Bft)
04/10/2011 19:40 19,3 C 70 % 1026,1 hPa 0,0 mm 0,0 km/h (0 Bft) N-NO 337 0 min 0 W/m 13,7 C 19,3 C 0,0 km/h (0 Bft)
04/10/2011 19:45 19,1 C 71 % 1026,1 hPa 0,0 mm 0,0 km/h (0 Bft) N-NO 337 0 min 0 W/m 13,7 C 19,1 C 0,0 km/h (0 Bft)
04/10/2011 19:50 18,8 C 72 % 1026,2 hPa 0,0 mm 0,0 km/h (0 Bft) N-NO 337 0 min 0 W/m 13,6 C 18,8 C 0,0 km/h (0 Bft)
04/10/2011 19:55 18,6 C 73 % 1026,1 hPa 0,0 mm 0,0 km/h (0 Bft) N-NO 337 0 min 0 W/m 13,7 C 18,6 C 0,0 km/h (0 Bft)
04/10/2011 20:00 18,4 C 74 % 1026,2 hPa 0,0 mm 0,0 km/h (0 Bft) N-NO 337 0 min 0 W/m 13,7 C 18,4 C 0,0 km/h (0 Bft)
04/10/2011 20:05 18,3 C 74 % 1026,2 hPa 0,0 mm 0,0 km/h (0 Bft) N-NO 337 0 min 0 W/m 13,6 C 18,3 C 0,0 km/h (0 Bft)
04/10/2011 20:10 18,1 C 75 % 1026,3 hPa 0,0 mm 0,0 km/h (0 Bft) N-NO 337 0 min 0 W/m 13,6 C 18,1 C 0,0 km/h (0 Bft)
04/10/2011 20:15 18,0 C 76 % 1026,4 hPa 0,0 mm 0,0 km/h (0 Bft) N-NO 337 0 min 0 W/m 13,7 C 18,0 C 0,0 km/h (0 Bft)
04/10/2011 20:20 17,9 C 76 % 1026,4 hPa 0,0 mm 0,0 km/h (0 Bft) N-NO 337 0 min 0 W/m 13,6 C 17,9 C 0,0 km/h (0 Bft)
04/10/2011 20:25 17,8 C 77 % 1026,5 hPa 0,0 mm 0,0 km/h (0 Bft) N-NO 337 0 min 0 W/m 13,7 C 17,8 C 0,0 km/h (0 Bft)
04/10/2011 20:30 17,8 C 77 % 1026,5 hPa 0,0 mm 0,0 km/h (0 Bft) N-NO 337 0 min 0 W/m 13,7 C 17,8 C 0,0 km/h (0 Bft)
04/10/2011 20:35 17,8 C 77 % 1026,6 hPa 0,0 mm 0,0 km/h (0 Bft) N-NO 337 0 min 0 W/m 13,7 C 17,8 C 0,0 km/h (0 Bft)
04/10/2011 20:40 17,7 C 77 % 1026,6 hPa 0,0 mm 0,0 km/h (0 Bft) N-NO 337 0 min 0 W/m 13,6 C 17,7 C 0,0 km/h (0 Bft)
04/10/2011 20:45 17,6 C 77 % 1026,6 hPa 0,0 mm 0,0 km/h (0 Bft) N-NO 337 0 min 0 W/m 13,5 C 17,6 C 0,0 km/h (0 Bft)
04/10/2011 20:50 17,6 C 78 % 1026,6 hPa 0,0 mm 0,0 km/h (0 Bft) N-NO 337 0 min 0 W/m 13,7 C 17,6 C 0,0 km/h (0 Bft)
04/10/2011 20:55 17,6 C 77 % 1026,5 hPa 0,0 mm 0,0 km/h (0 Bft) N-NO 337 0 min 0 W/m 13,5 C 17,6 C 0,0 km/h (0 Bft)
04/10/2011 21:00 17,6 C 77 % 1026,5 hPa 0,0 mm 0,0 km/h (0 Bft) N-NO 337 0 min 0 W/m 13,5 C 17,6 C 0,0 km/h (0 Bft)
04/10/2011 21:05 17,5 C 77 % 1026,6 hPa 0,0 mm 0,0 km/h (0 Bft) N-NO 337 0 min 0 W/m 13,4 C 17,5 C 0,0 km/h (0 Bft)
04/10/2011 21:10 17,5 C 77 % 1026,6 hPa 0,0 mm 0,0 km/h (0 Bft) N-NO 337 0 min 0 W/m 13,4 C 17,5 C 0,0 km/h (0 Bft)
04/10/2011 21:15 17,4 C 77 % 1026,6 hPa 0,0 mm 0,0 km/h (0 Bft) N-NO 337 0 min 0 W/m 13,3 C 17,4 C 0,0 km/h (0 Bft)
04/10/2011 21:20 17,3 C 77 % 1026,7 hPa 0,0 mm 0,0 km/h (0 Bft) N-NO 337 0 min 0 W/m 13,2 C 17,3 C 0,0 km/h (0 Bft)
04/10/2011 21:25 17,2 C 77 % 1026,7 hPa 0,0 mm 0,0 km/h (0 Bft) N-NO 337 0 min 0 W/m 13,1 C 17,2 C 0,0 km/h (0 Bft)
04/10/2011 21:30 17,1 C 77 % 1026,7 hPa 0,0 mm 0,0 km/h (0 Bft) N-NO 337 0 min 0 W/m 13,0 C 17,1 C 0,0 km/h (0 Bft)
04/10/2011 21:35 16,9 C 78 % 1026,8 hPa 0,0 mm 0,0 km/h (0 Bft) N-NO 337 0 min 0 W/m 13,0 C 16,9 C 0,0 km/h (0 Bft)
04/10/2011 21:40 16,8 C 78 % 1026,7 hPa 0,0 mm 0,0 km/h (0 Bft) N-NO 337 0 min 0 W/m 12,9 C 16,8 C 0,0 km/h (0 Bft)
04/10/2011 21:45 16,6 C 78 % 1026,8 hPa 0,0 mm 0,0 km/h (0 Bft) N-NO 337 0 min 0 W/m 12,7 C 16,6 C 0,0 km/h (0 Bft)
04/10/2011 21:50 16,5 C 79 % 1026,7 hPa 0,0 mm 0,0 km/h (0 Bft) N-NO 337 0 min 0 W/m 12,8 C 16,5 C 0,0 km/h (0 Bft)
04/10/2011 21:55 16,4 C 79 % 1026,8 hPa 0,0 mm 0,0 km/h (0 Bft) N-NO 337 0 min 0 W/m 12,7 C 16,4 C 0,0 km/h (0 Bft)
04/10/2011 22:00 16,4 C 79 % 1026,7 hPa 0,0 mm 0,0 km/h (0 Bft) N-NO 337 0 min 0 W/m 12,7 C 16,4 C 0,0 km/h (0 Bft)
04/10/2011 22:05 16,4 C 80 % 1026,8 hPa 0,0 mm 0,0 km/h (0 Bft) N-NO 337 0 min 0 W/m 12,9 C 16,4 C 0,0 km/h (0 Bft)
04/10/2011 22:10 16,4 C 80 % 1026,7 hPa 0,0 mm 0,0 km/h (0 Bft) N-NO 337 0 min 0 W/m 12,9 C 16,4 C 0,0 km/h (0 Bft)
04/10/2011 22:15 16,4 C 80 % 1026,8 hPa 0,0 mm 0,0 km/h (0 Bft) N-NO 337 0 min 0 W/m 12,9 C 16,4 C 0,0 km/h (0 Bft)
04/10/2011 22:20 16,4 C 80 % 1026,7 hPa 0,0 mm 0,0 km/h (0 Bft) N-NO 337 0 min 0 W/m 12,9 C 16,4 C 0,0 km/h (0 Bft)
_ Min-Heure 05:20 23:00 04:00 - 22:20 - - - - 04:35 05:20 22:20
Minimum _ 9,5 C 63 % 1024,8 hPa - 0,0 km/h (0 Bft) - - - - 6,4 C 9,5 C 0,0 km/h (0 Bft)
_ Max-Heure 16:50 11:20 13:00 22:20 15:35 - - 19:20 22:20 16:50 16:50 16:55
Maximum _ 22,3 C 89 % 1027,5 hPa 0,0 mm 2,9 km/h
S-SE (1 Bft)
- - 2 min 0 W/m 16,3 C 22,3 C 7,2 km/h
O-SO (2 Bft)
Moyenne _ 15,5 C 77 % 1026,0 hPa #0,0 mm 0,2 km/h (0 Bft) N-NO - #1:04 h 0 W/m 11,3 C 15,5 C 0,5 km/h (0 Bft)
Saint Bonnet de Bellac- Haute Vienne - France